Wind_Speed
16 16 15 15 16 17 18 19 20 19 19 19 20 21 21 22 24 25 26 26 26 27 28 30 30 29 29 28 28 28 29 30 30 31 32 32 33 33 34 34 35 36 35 35
16 16 16 16 16 16 16 17 18 19 18 19 20 20 21 22 23 24 25 26 26 27 28 28 29 29 28 27 26 26 27 27 28 29 30 31 33 33 33 33 33 33 32 32
15 16 17 17 16 16 16 16 17 18 19 20 20 21 21 22 23 24 25 25 26 27 28 28 28 28 27 26 26 25 25 26 26 27 29 29 31 31 31 31 31 30 30 31
15 16 17 17 17 17 17 17 17 18 20 21 21 22 22 22 23 23 24 25 26 27 27 27 27 27 27 26 26 25 25 25 26 26 27 27 28 29 29 29 29 29 29 29
15 15 17 17 17 18 19 18 19 19 20 20 21 21 22 22 22 23 23 24 25 25 26 26 27 27 27 26 25 24 24 24 25 24 24 23 24 25 25 25 26 26 26 26
15 16 16 15 16 17 18 18 19 19 19 20 20 20 20 21 21 22 22 23 24 24 24 24 25 26 26 25 24 23 23 22 22 22 22 21 21 22 22 23 23 24 24 25
16 16 16 16 17 17 18 18 19 20 19 20 20 20 20 21 21 22 22 23 23 24 24 24 25 25 25 24 23 22 21 20 20 20 20 20 19 20 21 22 23 23 24 24
16 16 16 17 18 18 18 18 19 19 19 20 20 21 21 21 21 22 22 23 23 23 24 24 24 24 23 22 21 21 21 19 18 17 18 19 19 20 21 22 21 21 22 22
16 16 17 17 19 19 19 19 19 19 20 20 20 20 20 20 20 20 21 22 22 23 23 22 22 21 21 20 20 20 19 18 18 18 18 19 20 20 20 20 20 20 20 20
17 16 17 17 18 18 18 18 19 20 20 20 19 18 18 19 19 20 21 21 21 22 21 21 21 20 20 19 18 17 17 17 17 18 18 19 19 19 19 19 19 19 18 18
18 18 19 19 18 18 18 18 18 18 19 18 18 17 18 19 19 20 20 20 21 21 20 20 19 19 18 17 16 16 16 16 16 16 17 17 18 18 17 17 17 17 17 17
18 18 18 18 17 17 18 18 18 18 18 18 18 18 18 18 18 18 19 20 19 19 19 19 18 17 17 16 16 16 15 15 15 15 15 15 15 15 16 16 16 16 16 16
18 18 18 18 18 18 18 18 18 19 18 18 18 19 19 19 18 18 18 18 18 18 18 17 17 17 17 17 17 17 17 16 16 15 15 14 13 13 13 14 14 14 14 14
17 17 18 17 18 18 18 18 18 19 18 18 18 18 18 19 18 18 18 18 18 18 17 17 17 17 17 17 17 17 16 16 15 14 13 12 12 12 13 12 12 12 12 11
17 17 18 18 18 18 18 18 18 18 18 18 18 18 18 18 19 19 18 18 18 18 17 17 17 17 17 17 17 16 16 15 14 13 12 12 12 12 11 10 9 9 10 10
17 17 18 18 18 18 18 18 17 17 17 17 18 18 19 18 18 17 18 18 17 17 16 16 17 17 17 17 16 15 14 14 13 13 12 11 11 10 10 9 8 8 9 10
17 18 18 18 18 18 18 17 17 17 17 17 17 17 18 18 18 18 18 18 18 17 16 17 17 17 17 16 15 14 13 13 13 12 11 11 10 10 9 8 8 8 9 9
16 17 17 18 18 17 17 17 18 18 18 18 18 18 18 18 18 18 19 18 18 17 16 16 16 15 14 14 14 14 14 13 12 12 11 11 10 10 10 9 9 9 9 9
15 16 16 16 16 16 16 17 18 18 19 19 18 18 18 18 18 18 18 18 18 17 16 15 15 15 15 15 14 14 14 13 12 11 10 10 10 10 9 8 8 8 8 8
14 14 14 14 15 16 16 17 17 18 18 18 18 18 18 18 18 18 18 18 18 16 16 16 16 16 16 16 15 14 13 13 11 10 9 9 9 9 8 8 7 7 7 7
13 13 13 14 14 15 16 16 17 17 17 17 17 17 17 17 18 18 18 17 17 16 15 16 16 16 16 15 15 14 13 11 10 9 9 9 9 8 8 7 7 6 6 6
13 13 13 14 15 15 16 16 17 17 16 16 16 16 17 17 17 17 17 16 16 16 16 15 15 15 15 15 14 14 12 11 10 9 9 9 8 8 8 8 8 7 6 6
14 14 14 15 15 16 16 17 17 16 16 16 17 17 17 17 17 16 16 16 16 16 16 15 15 15 15 14 13 12 11 11 10 9 9 9 9 9 9 9 9 8 7 7
15 15 15 15 15 16 16 16 16 16 16 16 16 16 16 16 16 16 16 15 15 15 14 14 14 14 14 13 12 11 10 10 9 9 8 8 8 8 8 9 9 8 8 7
15 15 15 16 16 15 15 15 16 16 16 16 16 16 16 15 15 15 15 15 14 13 13 13 13 13 12 11 11 10 10 9 9 8 7 7 7 7 7 7 7 7 7 7
15 15 15 16 16 15 15 15 15 15 16 16 15 15 15 15 15 14 14 13 13 13 13 12 12 12 11 11 10 9 8 8 8 8 7 7 6 5 5 5 5 5 5 6
14 14 14 14 15 15 14 14 14 15 15 14 14 14 14 14 13 13 13 12 12 12 11 11 11 10 10 10 9 8 7 7 6 6 6 5 5 4 4 4 5 5 5 5
Wind_Direction
264 264 261 258 258 263 267 272 277 279 277 277 279 282 283 284 286 286 289 291 293 292 292 294 296 296 294 292 289 286 282 279 275 271 269 269 271 271 271 268 266 264 262 262
263 260 258 259 263 268 272 274 278 280 280 279 281 283 284 286 288 290 291 292 294 295 294 296 296 296 295 293 291 288 284 280 278 274 270 271 272 272 272 271 267 265 264 264
262 258 256 259 263 268 274 276 279 281 282 282 284 286 287 288 290 292 293 294 295 297 296 294 297 298 297 296 293 290 286 281 280 278 273 273 273 272 271 271 268 266 264 264
265 260 257 261 262 266 273 276 279 284 284 284 285 287 289 291 292 294 296 296 296 297 299 297 296 298 298 295 294 291 288 285 283 280 276 275 274 271 270 271 268 264 264 266
268 265 261 262 266 270 275 276 280 284 285 287 287 287 289 293 295 296 298 298 299 300 300 298 298 300 300 296 294 293 291 289 287 283 280 278 276 274 270 271 268 263 264 264
264 267 265 265 266 272 276 279 280 285 287 287 288 289 290 292 297 300 301 300 301 301 302 302 301 300 300 297 294 293 294 292 289 285 282 281 279 276 273 270 268 265 265 266
265 268 267 268 269 273 280 283 284 285 288 290 291 293 294 295 295 297 299 301 302 303 304 305 305 305 303 299 296 295 294 292 289 286 283 281 278 274 273 272 269 267 267 266
265 268 271 272 271 274 279 282 283 285 289 291 292 293 294 296 295 296 299 302 304 304 306 308 309 308 306 302 298 297 294 291 288 286 284 281 278 275 274 273 270 266 265 266
265 269 273 276 273 274 276 280 283 285 289 292 292 293 295 295 295 296 299 302 304 306 308 309 311 311 309 306 304 301 295 289 286 285 285 284 281 278 276 273 269 266 267 266
266 268 271 275 275 273 275 279 284 287 290 292 292 292 294 296 298 298 300 302 305 307 307 308 310 310 309 309 309 306 300 293 288 286 283 281 281 278 276 274 270 267 268 266
267 268 270 273 276 278 278 280 285 289 291 292 290 290 293 296 298 299 301 303 306 308 309 310 311 311 311 310 309 307 303 296 292 288 283 281 280 278 274 271 267 267 267 265
269 269 270 272 275 279 280 282 285 288 290 293 294 293 294 296 297 299 302 305 306 308 309 310 311 312 312 311 309 307 304 301 299 294 290 287 285 280 276 272 270 268 266 265
266 268 270 272 276 279 282 284 285 287 288 291 295 295 296 296 298 298 300 303 306 309 309 310 312 310 308 306 306 305 305 304 300 298 295 291 288 283 281 278 275 271 265 261
268 268 270 273 277 280 284 286 285 286 288 291 295 297 297 296 297 298 300 302 305 308 308 309 310 309 307 306 306 306 306 305 303 300 297 292 289 288 288 285 277 270 265 259
270 270 271 273 276 281 284 286 287 287 289 292 295 297 299 298 296 295 297 302 304 306 307 307 308 308 307 307 308 307 306 305 303 299 297 296 293 292 290 286 278 269 262 256
271 273 274 275 277 282 286 287 287 287 289 291 294 297 298 299 298 296 297 300 303 305 306 307 308 309 309 309 310 309 306 305 304 302 300 301 299 294 290 286 280 269 259 256
273 273 274 277 280 283 285 285 285 287 287 288 293 297 298 298 298 298 299 300 302 303 303 305 307 308 312 312 311 310 308 306 304 300 299 299 297 292 289 288 283 270 263 263
277 277 277 279 281 283 284 285 286 288 288 288 291 294 295 296 298 298 299 301 303 303 303 304 306 309 312 314 312 311 311 309 304 299 297 295 294 294 291 288 283 277 270 268
281 280 280 282 284 286 288 288 288 289 289 289 288 290 292 294 297 298 300 302 303 300 300 301 302 304 307 308 309 308 307 306 302 298 296 294 293 293 291 285 280 277 272 265
277 278 280 283 287 288 290 292 292 290 290 290 289 290 292 294 297 298 299 300 301 300 299 298 298 300 303 304 303 303 303 302 300 295 292 292 294 292 288 285 281 275 268 258
278 279 281 284 287 290 292 294 294 293 292 290 290 291 293 295 296 297 298 300 300 299 299 298 298 298 302 304 302 301 301 297 294 291 291 292 290 287 284 284 281 273 263 256
277 279 281 283 286 290 292 294 295 295 294 293 292 293 294 296 297 297 298 298 299 298 298 299 299 298 301 303 302 300 295 290 287 287 288 287 286 286 283 279 275 272 268 263
273 277 280 282 285 288 291 293 295 296 296 295 294 294 295 297 298 297 297 297 297 297 297 298 298 298 301 301 298 296 291 286 283 283 284 286 289 287 282 276 270 266 266 267
274 277 280 282 283 287 289 291 293 295 297 296 295 295 295 296 297 296 296 296 294 294 295 298 301 301 299 298 295 292 287 282 281 279 283 289 292 288 280 274 270 267 266 262
273 275 279 283 284 285 288 291 293 297 298 297 296 295 295 295 295 295 296 296 294 293 295 298 301 301 298 294 292 290 286 279 276 277 279 284 288 287 279 271 265 260 255 252
273 276 280 284 285 285 287 291 295 299 300 298 296 296 296 296 296 296 296 296 295 294 294 295 298 298 297 294 292 290 287 279 272 273 275 278 281 279 272 261 255 256 256 255
274 279 283 286 286 285 285 288 293 297 300 301 298 296 296 297 298 298 298 298 296 297 297 294 292 294 296 294 292 287 281 278 272 266 261 262 266 264 262 261 258 259 259 258
Height
5602 5602 5602 5602 5603 5603 5602 5602 5602 5602 5601 5600 5598 5596 5595 5593 5592 5590 5588 5585 5581 5578 5575 5571 5567 5564 5560 5557 5554 5551 5549 5548 5547 5547 5547 5547 5547 5546 5546 5546 5546 5547 5548 5549
5597 5597 5597 5598 5598 5598 5598 5597 5596 5596 5595 5594 5592 5591 5589 5587 5585 5583 5581 5577 5574 5571 5567 5564 5560 5557 5553 5550 5547 5544 5541 5540 5539 5539 5539 5538 5538 5538 5537 5537 5537 5538 5539 5540
5592 5592 5592 5594 5594 5593 5593 5592 5591 5590 5590 5588 5586 5585 5583 5581 5579 5577 5574 5571 5567 5564 5561 5557 5554 5550 5546 5543 5540 5537 5534 5533 5532 5531 5531 5530 5530 5529 5529 5529 5529 5530 5531 5532
5587 5588 5588 5591 5589 5588 5588 5587 5586 5585 5583 5582 5580 5579 5577 5575 5573 5570 5567 5564 5561 5557 5554 5550 5546 5543 5539 5536 5533 5530 5528 5526 5525 5524 5523 5523 5522 5522 5522 5522 5522 5522 5524 5524
5582 5582 5583 5585 5584 5583 5582 5582 5581 5579 5578 5576 5574 5573 5571 5569 5566 5564 5561 5557 5554 5551 5547 5543 5539 5536 5532 5530 5527 5524 5522 5520 5518 5517 5516 5516 5515 5515 5515 5514 5515 5515 5516 5517
5578 5577 5578 5580 5579 5577 5578 5577 5575 5574 5572 5570 5569 5568 5566 5563 5561 5557 5554 5551 5548 5544 5541 5537 5533 5529 5526 5524 5521 5519 5516 5514 5512 5511 5511 5510 5510 5509 5509 5509 5509 5509 5510 5510
5573 5572 5573 5574 5573 5573 5573 5572 5570 5568 5566 5564 5562 5561 5560 5557 5555 5552 5549 5546 5542 5539 5535 5531 5528 5524 5520 5518 5515 5513 5511 5509 5507 5506 5506 5505 5504 5504 5504 5504 5503 5503 5503 5504
5568 5568 5571 5568 5567 5567 5567 5565 5563 5562 5560 5558 5556 5554 5552 5550 5548 5546 5543 5540 5536 5533 5530 5526 5522 5518 5515 5512 5510 5508 5506 5505 5503 5502 5501 5500 5499 5498 5498 5498 5497 5497 5498 5498
5564 5566 5564 5562 5562 5561 5560 5559 5558 5556 5555 5552 5550 5548 5546 5544 5542 5540 5537 5534 5531 5528 5524 5521 5517 5514 5511 5508 5505 5503 5501 5500 5498 5497 5496 5495 5494 5494 5493 5493 5492 5493 5493 5493
5558 5559 5558 5557 5555 5555 5554 5553 5552 5550 5549 5547 5545 5543 5541 5539 5537 5535 5532 5529 5526 5523 5519 5516 5513 5510 5507 5504 5501 5499 5497 5495 5494 5493 5492 5491 5489 5489 5488 5488 5488 5488 5488 5488
5553 5553 5552 5551 5550 5549 5548 5547 5546 5545 5543 5542 5540 5538 5536 5534 5532 5530 5527 5524 5521 5518 5515 5512 5509 5506 5504 5501 5498 5496 5494 5492 5490 5488 5487 5486 5485 5484 5483 5483 5483 5483 5483 5483
5547 5547 5546 5546 5545 5544 5543 5542 5541 5540 5538 5536 5534 5533 5531 5529 5527 5525 5523 5520 5517 5514 5511 5508 5506 5503 5500 5497 5495 5493 5491 5488 5487 5485 5483 5481 5480 5479 5478 5478 5478 5478 5478 5478
5541 5541 5540 5540 5539 5538 5537 5536 5535 5534 5533 5531 5529 5527 5525 5524 5522 5520 5518 5515 5513 5510 5507 5505 5502 5499 5497 5494 5491 5489 5487 5485 5483 5481 5479 5477 5476 5475 5474 5474 5473 5473 5473 5473
5535 5535 5535 5534 5534 5533 5532 5531 5530 5529 5527 5526 5524 5522 5520 5519 5517 5515 5513 5510 5508 5506 5503 5501 5498 5495 5493 5490 5488 5485 5483 5481 5479 5477 5475 5474 5472 5471 5470 5470 5469 5468 5469 5470
5530 5529 5529 5529 5528 5527 5526 5526 5525 5523 5522 5521 5519 5518 5516 5514 5512 5510 5508 5506 5504 5501 5499 5497 5494 5491 5489 5486 5484 5481 5479 5477 5475 5473 5472 5470 5469 5468 5467 5466 5465 5465 5465 5466
5525 5524 5524 5523 5523 5522 5521 5520 5519 5518 5517 5516 5514 5513 5511 5509 5507 5505 5503 5501 5499 5497 5495 5493 5490 5487 5485 5482 5480 5477 5475 5473 5471 5470 5468 5467 5466 5465 5464 5463 5462 5462 5463 5463
5520 5520 5519 5518 5518 5517 5516 5515 5514 5513 5512 5511 5509 5508 5506 5504 5502 5500 5499 5497 5494 5492 5490 5488 5486 5483 5481 5479 5476 5474 5472 5470 5468 5467 5465 5464 5463 5462 5461 5460 5460 5459 5459 5459
5514 5514 5513 5513 5512 5511 5510 5509 5508 5507 5506 5505 5504 5502 5501 5499 5497 5495 5493 5491 5489 5487 5485 5483 5481 5479 5477 5475 5473 5471 5469 5467 5465 5463 5462 5461 5460 5459 5458 5457 5457 5456 5456 5456
5509 5508 5508 5507 5507 5506 5505 5503 5502 5501 5500 5499 5498 5496 5495 5494 5492 5490 5488 5486 5484 5482 5481 5479 5477 5475 5473 5471 5469 5467 5465 5463 5461 5460 5458 5457 5456 5456 5455 5454 5454 5453 5453 5453
5504 5503 5503 5502 5501 5500 5499 5498 5497 5495 5494 5493 5492 5490 5489 5488 5486 5485 5483 5481 5479 5477 5476 5474 5473 5471 5469 5467 5465 5463 5461 5459 5458 5457 5455 5454 5453 5453 5452 5451 5451 5450 5450 5450
5499 5498 5498 5497 5496 5495 5494 5493 5492 5490 5489 5487 5486 5485 5484 5482 5481 5479 5478 5476 5474 5472 5471 5470 5468 5466 5465 5463 5461 5459 5457 5456 5455 5454 5453 5451 5451 5450 5450 5449 5448 5448 5448 5448
5494 5493 5493 5492 5491 5490 5489 5488 5487 5485 5484 5482 5481 5480 5479 5477 5476 5474 5472 5471 5469 5468 5466 5465 5463 5462 5460 5458 5457 5455 5454 5453 5451 5450 5450 5449 5448 5448 5447 5447 5446 5446 5446 5446
5489 5488 5488 5487 5487 5485 5484 5483 5482 5480 5479 5477 5476 5475 5473 5472 5470 5469 5467 5466 5464 5463 5461 5460 5458 5457 5456 5454 5453 5451 5450 5449 5448 5447 5447 5446 5445 5445 5445 5444 5444 5444 5444 5443
5484 5483 5483 5482 5481 5480 5479 5478 5477 5476 5474 5472 5471 5469 5468 5467 5465 5464 5462 5461 5459 5458 5457 5455 5454 5452 5451 5450 5449 5448 5447 5446 5445 5444 5444 5443 5443 5442 5442 5441 5441 5441 5441 5441
5478 5478 5478 5477 5476 5475 5474 5473 5472 5471 5469 5468 5466 5465 5463 5462 5460 5459 5457 5456 5454 5453 5452 5451 5450 5448 5447 5446 5445 5444 5443 5442 5442 5442 5441 5441 5440 5440 5439 5439 5439 5439 5439 5439
5473 5473 5472 5472 5471 5470 5470 5469 5467 5466 5464 5463 5461 5460 5459 5457 5456 5454 5453 5452 5450 5449 5448 5447 5446 5444 5443 5442 5441 5440 5440 5439 5439 5439 5439 5438 5438 5438 5437 5437 5437 5437 5437 5437
5468 5468 5468 5467 5466 5465 5465 5464 5463 5461 5460 5458 5457 5455 5454 5453 5452 5450 5449 5448 5446 5445 5444 5443 5442 5441 5440 5439 5438 5437 5437 5436 5436 5436 5436 5436 5436 5436 5436 5436 5436 5435 5435 5435